This is the latest recevied weather packets stored in our database for station/object IW4DZV-13. If no packets are shown the sender has not sent any weather packets the latest 10 day(s).
| Time | Temp. | Humidity | Pressure | Rain* | Wind** | Luminosity | Snow |
|---|---|---|---|---|---|---|---|
| 1777699822 | 11.11° C | 63% | 1025.7 hPa | 0 mm | - | 195 W/m² | - |
| 1777698919 | 9.44° C | 67% | 1025.5 hPa | 0 mm | - | 141 W/m² | - |
| 1777698017 | 8.89° C | 68% | 1025.5 hPa | 0 mm | - | 33 W/m² | - |
| 1777697115 | 8.89° C | 66% | 1025.5 hPa | 0 mm | - | 23 W/m² | - |
| 1777696214 | 8.89° C | 66% | 1025.5 hPa | 0 mm | - | 16 W/m² | - |
| 1777695312 | 8.89° C | 65% | 1025.4 hPa | 0 mm | - | 9 W/m² | - |
| 1777694411 | 8.89° C | 65% | 1025.5 hPa | 0 mm | - | 0 W/m² | - |
| 1777693509 | 8.89° C | 63% | 1025.4 hPa | 0 mm | - | 0 W/m² | - |
| 1777692608 | 8.89° C | 63% | 1025.3 hPa | 0 mm | - | 0 W/m² | - |
| 1777691708 | 8.89° C | 63% | 1025.3 hPa | 0 mm | - | 0 W/m² | - |
| 1777690805 | 9.44° C | 62% | 1025.4 hPa | 0 mm | - | 0 W/m² | - |
| 1777689903 | 9.44° C | 61% | 1025.4 hPa | 0 mm | - | 0 W/m² | - |
| 1777689002 | 10° C | 60% | 1025.5 hPa | 0 mm | - | 0 W/m² | - |
| 1777688102 | 10° C | 59% | 1025.6 hPa | 0 mm | - | 0 W/m² | - |
| 1777687260 | 10° C | 60% | 1025.5 hPa | 0 mm | - | 0 W/m² | - |
| 1777686359 | 10° C | 60% | 1025.5 hPa | 0 mm | - | 0 W/m² | - |
| 1777685458 | 10° C | 60% | 1025.6 hPa | 0 mm | - | 0 W/m² | - |
| 1777684562 | 10° C | 60% | 1025.6 hPa | 0 mm | - | 0 W/m² | - |
| 1777683656 | 10° C | 59% | 1025.5 hPa | 0 mm | - | 0 W/m² | - |
| 1777682768 | 10.56° C | 58% | 1025.6 hPa | 0 mm | - | 0 W/m² | - |
| 1777681853 | 10.56° C | 57% | 1025.7 hPa | 0 mm | - | 0 W/m² | - |
| 1777680951 | 11.11° C | 56% | 1025.8 hPa | 0 mm | - | 0 W/m² | - |
| 1777680059 | 11.11° C | 55% | 1025.9 hPa | 0 mm | - | 0 W/m² | - |
| 1777679152 | 11.11° C | 55% | 1025.9 hPa | 0 mm | - | 0 W/m² | - |
| 1777678250 | 11.11° C | 55% | 1025.8 hPa | 0 mm | - | 0 W/m² | - |
* Rain since midnight (hover to see other rain measurements)
** Current wind speed in m/s (hover to see current wind gust speed)